Year,Month,Day,Hour,Minute,Value (Times are PST for temperature in C)
2018,04,24,00,00,10.70
2018,04,24,00,01,10.70
2018,04,24,00,02,10.60
2018,04,24,00,03,10.60
2018,04,24,00,04,10.60
2018,04,24,00,05,10.60
2018,04,24,00,06,10.60
2018,04,24,00,07,10.60
2018,04,24,00,08,10.70
2018,04,24,00,09,10.60
2018,04,24,00,10,10.60
2018,04,24,00,11,10.50
2018,04,24,00,12,10.40
2018,04,24,00,13,10.30
2018,04,24,00,14,10.20
2018,04,24,00,15,10.10
2018,04,24,00,16,10.10
2018,04,24,00,17,10.10
2018,04,24,00,18,10.00
2018,04,24,00,19,9.90
2018,04,24,00,20,9.90
2018,04,24,00,21,9.80
2018,04,24,00,22,9.80
2018,04,24,00,23,9.80
2018,04,24,00,24,9.70
2018,04,24,00,25,9.70
2018,04,24,00,26,9.70
2018,04,24,00,27,9.70
2018,04,24,00,28,9.70
2018,04,24,00,29,9.70
2018,04,24,00,30,9.70
2018,04,24,00,31,9.70
2018,04,24,00,32,9.70
2018,04,24,00,33,9.70
2018,04,24,00,34,9.70
2018,04,24,00,35,9.70
2018,04,24,00,36,9.70
2018,04,24,00,37,9.70
2018,04,24,00,38,9.60
2018,04,24,00,39,9.50
2018,04,24,00,40,9.40
2018,04,24,00,41,9.30
2018,04,24,00,42,9.20
2018,04,24,00,43,9.10
2018,04,24,00,44,9.00
2018,04,24,00,45,8.90
2018,04,24,00,46,8.90
2018,04,24,00,47,8.90
2018,04,24,00,48,8.90
2018,04,24,00,49,8.90
2018,04,24,00,50,8.80
2018,04,24,00,51,8.60
2018,04,24,00,52,8.50
2018,04,24,00,53,8.40
2018,04,24,00,54,8.30
2018,04,24,00,55,8.30
2018,04,24,00,56,8.20
2018,04,24,00,57,8.10
2018,04,24,00,58,8.10
2018,04,24,00,59,8.10
2018,04,24,01,00,8.10
2018,04,24,01,01,8.10
2018,04,24,01,02,8.00
2018,04,24,01,03,8.00
2018,04,24,01,04,8.00
2018,04,24,01,05,8.00
2018,04,24,01,06,8.00
2018,04,24,01,07,8.10
2018,04,24,01,08,8.10
2018,04,24,01,09,8.10
2018,04,24,01,10,8.20
2018,04,24,01,11,8.30
2018,04,24,01,12,8.40
2018,04,24,01,13,8.50
2018,04,24,01,14,8.50
2018,04,24,01,15,8.40
2018,04,24,01,16,8.40
2018,04,24,01,17,8.30
2018,04,24,01,18,8.20
2018,04,24,01,19,8.20
2018,04,24,01,20,8.10
2018,04,24,01,21,8.10
2018,04,24,01,22,8.10
2018,04,24,01,23,8.10
2018,04,24,01,24,8.10
2018,04,24,01,25,8.10
2018,04,24,01,26,8.00
2018,04,24,01,27,7.90
2018,04,24,01,28,7.90
2018,04,24,01,29,7.80
2018,04,24,01,30,7.80
2018,04,24,01,31,7.80
2018,04,24,01,32,7.80
2018,04,24,01,33,7.70
2018,04,24,01,34,7.70
2018,04,24,01,35,7.70
2018,04,24,01,36,7.70
2018,04,24,01,37,7.70
2018,04,24,01,38,7.70
2018,04,24,01,39,7.70
2018,04,24,01,40,7.70
2018,04,24,01,41,7.60
2018,04,24,01,42,7.60
2018,04,24,01,43,7.60
2018,04,24,01,44,7.60
2018,04,24,01,45,7.60
2018,04,24,01,46,7.60
2018,04,24,01,47,7.60
2018,04,24,01,48,7.60
2018,04,24,01,49,7.60
2018,04,24,01,50,7.70
2018,04,24,01,51,7.80
2018,04,24,01,52,7.80
2018,04,24,01,53,7.80
2018,04,24,01,54,7.80
2018,04,24,01,55,7.70
2018,04,24,01,56,7.60
2018,04,24,01,57,7.60
2018,04,24,01,58,7.50
2018,04,24,01,59,7.40
2018,04,24,02,00,7.30
2018,04,24,02,01,7.30
2018,04,24,02,02,7.30
2018,04,24,02,03,7.30
2018,04,24,02,04,7.30
2018,04,24,02,05,7.40
2018,04,24,02,06,7.40
2018,04,24,02,07,7.50
2018,04,24,02,08,7.60
2018,04,24,02,09,7.60
2018,04,24,02,10,7.50
2018,04,24,02,11,7.50
2018,04,24,02,12,7.40
2018,04,24,02,13,7.40
2018,04,24,02,14,7.40
2018,04,24,02,15,7.40
2018,04,24,02,16,7.40
2018,04,24,02,17,7.30
2018,04,24,02,18,7.30
2018,04,24,02,19,7.30
2018,04,24,02,20,7.30
2018,04,24,02,21,7.20
2018,04,24,02,22,7.20
2018,04,24,02,23,7.20
2018,04,24,02,24,7.30
2018,04,24,02,25,7.30
2018,04,24,02,26,7.30
2018,04,24,02,27,7.50
2018,04,24,02,28,7.60
2018,04,24,02,29,7.80
2018,04,24,02,30,7.90
2018,04,24,02,31,7.90
2018,04,24,02,32,7.90
2018,04,24,02,33,7.90
2018,04,24,02,34,7.80
2018,04,24,02,35,7.70
2018,04,24,02,36,7.60
2018,04,24,02,37,7.70
2018,04,24,02,38,7.60
2018,04,24,02,39,7.50
2018,04,24,02,40,7.30
2018,04,24,02,41,7.20
2018,04,24,02,42,7.10
2018,04,24,02,43,7.00
2018,04,24,02,44,7.00
2018,04,24,02,45,7.20
2018,04,24,02,46,7.40
2018,04,24,02,47,7.60
2018,04,24,02,48,7.90
2018,04,24,02,49,8.10
2018,04,24,02,50,8.30
2018,04,24,02,51,8.40
2018,04,24,02,52,8.40
2018,04,24,02,53,8.40
2018,04,24,02,54,8.40
2018,04,24,02,55,8.30
2018,04,24,02,56,8.30
2018,04,24,02,57,8.30
2018,04,24,02,58,8.30
2018,04,24,02,59,8.30
2018,04,24,03,00,8.30
2018,04,24,03,01,8.40
2018,04,24,03,02,8.50
2018,04,24,03,03,8.50
2018,04,24,03,04,8.50
2018,04,24,03,05,8.60
2018,04,24,03,06,8.60
2018,04,24,03,07,8.60
2018,04,24,03,08,8.60
2018,04,24,03,09,8.50
2018,04,24,03,10,8.40
2018,04,24,03,11,8.30
2018,04,24,03,12,8.20
2018,04,24,03,13,8.20
2018,04,24,03,14,8.20
2018,04,24,03,15,8.10
2018,04,24,03,16,8.00
2018,04,24,03,17,8.00
2018,04,24,03,18,8.10
2018,04,24,03,19,8.10
2018,04,24,03,20,8.20
2018,04,24,03,21,8.20
2018,04,24,03,22,8.10
2018,04,24,03,23,8.10
2018,04,24,03,24,8.00
2018,04,24,03,25,8.00
2018,04,24,03,26,8.00
2018,04,24,03,27,8.00
2018,04,24,03,28,8.00
2018,04,24,03,29,8.00
2018,04,24,03,30,8.00
2018,04,24,03,31,8.00
2018,04,24,03,32,8.00
2018,04,24,03,33,8.00
2018,04,24,03,34,8.00
2018,04,24,03,35,8.00
2018,04,24,03,36,8.10
2018,04,24,03,37,8.10
2018,04,24,03,38,8.10
2018,04,24,03,39,8.20
2018,04,24,03,40,8.20
2018,04,24,03,41,8.10
2018,04,24,03,42,8.10
2018,04,24,03,43,8.10
2018,04,24,03,44,8.10
2018,04,24,03,45,8.10
2018,04,24,03,46,8.10
2018,04,24,03,47,8.20
2018,04,24,03,48,8.20
2018,04,24,03,49,8.30
2018,04,24,03,50,8.30
2018,04,24,03,51,8.30
2018,04,24,03,52,8.40
2018,04,24,03,53,8.50
2018,04,24,03,54,8.60
2018,04,24,03,55,8.70
2018,04,24,03,56,8.70
2018,04,24,03,57,8.80
2018,04,24,03,58,8.80
2018,04,24,03,59,8.80
2018,04,24,04,00,8.70
2018,04,24,04,01,8.60
2018,04,24,04,02,8.50
2018,04,24,04,03,8.40
2018,04,24,04,04,8.30
2018,04,24,04,05,8.20
2018,04,24,04,06,8.40
2018,04,24,04,07,8.50
2018,04,24,04,08,8.60
2018,04,24,04,09,8.40
2018,04,24,04,10,8.20
2018,04,24,04,11,7.90
2018,04,24,04,12,7.60
2018,04,24,04,13,7.40
2018,04,24,04,14,7.20
2018,04,24,04,15,7.10
2018,04,24,04,16,7.00
2018,04,24,04,17,7.00
2018,04,24,04,18,7.00
2018,04,24,04,19,7.00
2018,04,24,04,20,7.00
2018,04,24,04,21,7.00
2018,04,24,04,22,7.00
2018,04,24,04,23,7.00
2018,04,24,04,24,7.00
2018,04,24,04,25,6.90
2018,04,24,04,26,6.90
2018,04,24,04,27,6.90
2018,04,24,04,28,6.90
2018,04,24,04,29,6.80
2018,04,24,04,30,6.80
2018,04,24,04,31,6.80
2018,04,24,04,32,6.80
2018,04,24,04,33,6.90
2018,04,24,04,34,6.90
2018,04,24,04,35,7.00
2018,04,24,04,36,7.00
2018,04,24,04,37,7.00
2018,04,24,04,38,7.00
2018,04,24,04,39,7.00
2018,04,24,04,40,7.00
2018,04,24,04,41,7.00
2018,04,24,04,42,6.90
2018,04,24,04,43,6.90
2018,04,24,04,44,6.80
2018,04,24,04,45,6.80
2018,04,24,04,46,6.80
2018,04,24,04,47,6.80
2018,04,24,04,48,6.80
2018,04,24,04,49,6.80
2018,04,24,04,50,6.70
2018,04,24,04,51,6.70
2018,04,24,04,52,6.70
2018,04,24,04,53,6.70
2018,04,24,04,54,6.70
2018,04,24,04,55,6.70
2018,04,24,04,56,6.70
2018,04,24,04,57,6.60
2018,04,24,04,58,6.60
2018,04,24,04,59,6.60
2018,04,24,05,00,6.60
2018,04,24,05,01,6.60
2018,04,24,05,02,6.60
2018,04,24,05,03,6.60
2018,04,24,05,04,6.60
2018,04,24,05,05,6.60
2018,04,24,05,06,6.60
2018,04,24,05,07,6.60
2018,04,24,05,08,6.50
2018,04,24,05,09,6.50
2018,04,24,05,10,6.50
2018,04,24,05,11,6.40
2018,04,24,05,12,6.50
2018,04,24,05,13,6.50
2018,04,24,05,14,6.50
2018,04,24,05,15,6.40
2018,04,24,05,16,6.40
2018,04,24,05,17,6.30
2018,04,24,05,18,6.20
2018,04,24,05,19,6.10
2018,04,24,05,20,5.90
2018,04,24,05,21,5.80
2018,04,24,05,22,5.70
2018,04,24,05,23,5.70
2018,04,24,05,24,5.70
2018,04,24,05,25,5.70
2018,04,24,05,26,5.70
2018,04,24,05,27,5.70
2018,04,24,05,28,5.70
2018,04,24,05,29,5.70
2018,04,24,05,30,5.70
2018,04,24,05,31,5.70
2018,04,24,05,32,5.80
2018,04,24,05,33,5.90
2018,04,24,05,34,6.00
2018,04,24,05,35,6.10
2018,04,24,05,36,6.20
2018,04,24,05,37,6.30
2018,04,24,05,38,6.40
2018,04,24,05,39,6.40
2018,04,24,05,40,6.50
2018,04,24,05,41,6.50
2018,04,24,05,42,6.50
2018,04,24,05,43,6.50
2018,04,24,05,44,6.50
2018,04,24,05,45,6.50
2018,04,24,05,46,6.50
2018,04,24,05,47,6.60
2018,04,24,05,48,6.60
2018,04,24,05,49,6.60
2018,04,24,05,50,6.60
2018,04,24,05,51,6.50
2018,04,24,05,52,6.50
2018,04,24,05,53,6.50
2018,04,24,05,54,6.40
2018,04,24,05,55,6.40
2018,04,24,05,56,6.40
2018,04,24,05,57,6.40
2018,04,24,05,58,6.30
2018,04,24,05,59,6.30
2018,04,24,06,00,6.20
2018,04,24,06,01,6.10
2018,04,24,06,02,6.00
2018,04,24,06,03,5.90
2018,04,24,06,04,5.80
2018,04,24,06,05,5.80
2018,04,24,06,06,5.70
2018,04,24,06,07,5.60
2018,04,24,06,08,5.60
2018,04,24,06,09,5.60
2018,04,24,06,10,5.60
2018,04,24,06,11,5.60
2018,04,24,06,12,5.60
2018,04,24,06,13,5.50
2018,04,24,06,14,5.50
2018,04,24,06,15,5.50
2018,04,24,06,16,5.50
2018,04,24,06,17,5.40
2018,04,24,06,18,5.40
2018,04,24,06,19,5.40
2018,04,24,06,20,5.40
2018,04,24,06,21,5.40
2018,04,24,06,22,5.40
2018,04,24,06,23,5.30
2018,04,24,06,24,5.30
2018,04,24,06,25,5.30
2018,04,24,06,26,5.30
2018,04,24,06,27,5.40
2018,04,24,06,28,5.40
2018,04,24,06,29,5.50
2018,04,24,06,30,5.50
2018,04,24,06,31,5.60
2018,04,24,06,32,5.60
2018,04,24,06,33,5.60
2018,04,24,06,34,5.60
2018,04,24,06,35,5.60
2018,04,24,06,36,5.60
2018,04,24,06,37,5.70
2018,04,24,06,38,5.70
2018,04,24,06,39,5.70
2018,04,24,06,40,5.70
2018,04,24,06,41,5.70
2018,04,24,06,42,5.70
2018,04,24,06,43,5.70
2018,04,24,06,44,5.80
2018,04,24,06,45,5.80
2018,04,24,06,46,5.80
2018,04,24,06,47,5.80
2018,04,24,06,48,5.80
2018,04,24,06,49,5.90
2018,04,24,06,50,5.90
2018,04,24,06,51,6.00
2018,04,24,06,52,6.10
2018,04,24,06,53,6.20
2018,04,24,06,54,6.20
2018,04,24,06,55,6.20
2018,04,24,06,56,6.30
2018,04,24,06,57,6.30
2018,04,24,06,58,6.40
2018,04,24,06,59,6.40
2018,04,24,07,00,6.50
2018,04,24,07,01,6.60
2018,04,24,07,02,6.60
2018,04,24,07,03,6.60
2018,04,24,07,04,6.70
2018,04,24,07,05,6.70
2018,04,24,07,06,6.80
2018,04,24,07,07,6.80
2018,04,24,07,08,6.90
2018,04,24,07,09,7.00
2018,04,24,07,10,7.10
2018,04,24,07,11,7.10
2018,04,24,07,12,7.20
2018,04,24,07,13,7.20
2018,04,24,07,14,7.20
2018,04,24,07,15,7.30
2018,04,24,07,16,7.40
2018,04,24,07,17,7.40
2018,04,24,07,18,7.60
2018,04,24,07,19,7.70
2018,04,24,07,20,7.90
2018,04,24,07,21,8.10
2018,04,24,07,22,8.30
2018,04,24,07,23,8.40
2018,04,24,07,24,8.60
2018,04,24,07,25,8.70
2018,04,24,07,26,8.70
2018,04,24,07,27,8.80
2018,04,24,07,28,8.80
2018,04,24,07,29,8.80
2018,04,24,07,30,8.90
2018,04,24,07,31,9.00
2018,04,24,07,32,9.10
2018,04,24,07,33,9.20
2018,04,24,07,34,9.30
2018,04,24,07,35,9.40
2018,04,24,07,36,9.50
2018,04,24,07,37,9.70
2018,04,24,07,38,9.80
2018,04,24,07,39,9.90
2018,04,24,07,40,10.00
2018,04,24,07,41,10.20
2018,04,24,07,42,10.20
2018,04,24,07,43,10.30
2018,04,24,07,44,10.30
2018,04,24,07,45,10.40
2018,04,24,07,46,10.40
2018,04,24,07,47,10.50
2018,04,24,07,48,10.50
2018,04,24,07,49,10.60
2018,04,24,07,50,10.60
2018,04,24,07,51,10.70
2018,04,24,07,52,10.70
2018,04,24,07,53,10.70
2018,04,24,07,54,10.80
2018,04,24,07,55,10.80
2018,04,24,07,56,10.80
2018,04,24,07,57,10.80
2018,04,24,07,58,10.80
2018,04,24,07,59,10.80
2018,04,24,08,00,10.80
2018,04,24,08,01,10.80
2018,04,24,08,02,10.90
2018,04,24,08,03,11.00
2018,04,24,08,04,11.10
2018,04,24,08,05,11.20
2018,04,24,08,06,11.30
2018,04,24,08,07,11.40
2018,04,24,08,08,11.50
2018,04,24,08,09,11.60
2018,04,24,08,10,11.60
2018,04,24,08,11,11.70
2018,04,24,08,12,11.70
2018,04,24,08,13,11.80
2018,04,24,08,14,11.90
2018,04,24,08,15,12.00
2018,04,24,08,16,12.10
2018,04,24,08,17,12.20
2018,04,24,08,18,12.30
2018,04,24,08,19,12.30
2018,04,24,08,20,12.30
2018,04,24,08,21,12.40
2018,04,24,08,22,12.40
2018,04,24,08,23,12.50
2018,04,24,08,24,12.50
2018,04,24,08,25,12.50
2018,04,24,08,26,12.50
2018,04,24,08,27,12.40
2018,04,24,08,28,12.50
2018,04,24,08,29,12.50
2018,04,24,08,30,12.40
2018,04,24,08,31,12.40
2018,04,24,08,32,12.40
2018,04,24,08,33,12.50
2018,04,24,08,34,12.50
2018,04,24,08,35,12.50
2018,04,24,08,36,12.50
2018,04,24,08,37,12.50
2018,04,24,08,38,12.50
2018,04,24,08,39,12.50
2018,04,24,08,40,12.50
2018,04,24,08,41,12.60
2018,04,24,08,42,12.60
2018,04,24,08,43,12.60
2018,04,24,08,44,12.60
2018,04,24,08,45,12.70
2018,04,24,08,46,12.70
2018,04,24,08,47,12.70
2018,04,24,08,48,12.80
2018,04,24,08,49,12.80
2018,04,24,08,50,12.90
2018,04,24,08,51,12.90
2018,04,24,08,52,13.00
2018,04,24,08,53,13.10
2018,04,24,08,54,13.10
2018,04,24,08,55,13.20
2018,04,24,08,56,13.30
2018,04,24,08,57,13.30
2018,04,24,08,58,13.30
2018,04,24,08,59,13.30
2018,04,24,09,00,13.40
2018,04,24,09,01,13.40
2018,04,24,09,02,13.50
2018,04,24,09,03,13.50
2018,04,24,09,04,13.50
2018,04,24,09,05,13.50
2018,04,24,09,06,13.50
2018,04,24,09,07,13.60
2018,04,24,09,08,13.60
2018,04,24,09,09,13.60
2018,04,24,09,10,13.60
2018,04,24,09,11,13.60
2018,04,24,09,12,13.60
2018,04,24,09,13,13.60
2018,04,24,09,14,13.50
2018,04,24,09,15,13.40
2018,04,24,09,16,13.40
2018,04,24,09,17,13.40
2018,04,24,09,18,13.40
2018,04,24,09,19,13.40
2018,04,24,09,20,13.50
2018,04,24,09,21,13.50
2018,04,24,09,22,13.60
2018,04,24,09,23,13.70
2018,04,24,09,24,13.70
2018,04,24,09,25,13.80
2018,04,24,09,26,13.90
2018,04,24,09,27,13.90
2018,04,24,09,28,14.00
2018,04,24,09,29,14.10
2018,04,24,09,30,14.30
2018,04,24,09,31,14.50
2018,04,24,09,32,14.70
2018,04,24,09,33,14.80
2018,04,24,09,34,14.90
2018,04,24,09,35,15.00
2018,04,24,09,36,15.20
2018,04,24,09,37,15.30
2018,04,24,09,38,15.40
2018,04,24,09,39,15.50
2018,04,24,09,40,15.70
2018,04,24,09,41,15.80
2018,04,24,09,42,15.90
2018,04,24,09,43,16.00
2018,04,24,09,44,16.10
2018,04,24,09,45,16.10
2018,04,24,09,46,16.10
2018,04,24,09,47,15.90
2018,04,24,09,48,15.50
2018,04,24,09,49,15.30
2018,04,24,09,50,15.10
2018,04,24,09,51,14.90
2018,04,24,09,52,14.90
2018,04,24,09,53,14.90
2018,04,24,09,54,15.00
2018,04,24,09,55,15.10
2018,04,24,09,56,15.10
2018,04,24,09,57,15.30
2018,04,24,09,58,15.40
2018,04,24,09,59,15.40
2018,04,24,10,00,15.50
2018,04,24,10,01,15.50
2018,04,24,10,02,15.60
2018,04,24,10,03,15.70
2018,04,24,10,04,15.80
2018,04,24,10,05,15.90
2018,04,24,10,06,15.90
2018,04,24,10,07,15.90
2018,04,24,10,08,15.90
2018,04,24,10,09,15.90
2018,04,24,10,10,15.90
2018,04,24,10,11,15.90
2018,04,24,10,12,16.00
2018,04,24,10,13,15.90
2018,04,24,10,14,16.00
2018,04,24,10,15,16.00
2018,04,24,10,16,16.00
2018,04,24,10,17,15.80
2018,04,24,10,18,15.80
2018,04,24,10,19,15.80
2018,04,24,10,20,15.80
2018,04,24,10,21,15.70
2018,04,24,10,22,15.80
2018,04,24,10,23,15.80
2018,04,24,10,24,15.80
2018,04,24,10,25,15.90
2018,04,24,10,26,16.00
2018,04,24,10,27,16.00
2018,04,24,10,28,16.10
2018,04,24,10,29,16.20
2018,04,24,10,30,16.20
2018,04,24,10,31,16.20
2018,04,24,10,32,16.10
2018,04,24,10,33,16.10
2018,04,24,10,34,16.10
2018,04,24,10,35,16.10
2018,04,24,10,36,16.20
2018,04,24,10,37,16.30
2018,04,24,10,38,16.40
2018,04,24,10,39,16.50
2018,04,24,10,40,16.60
2018,04,24,10,41,16.50
2018,04,24,10,42,16.40
2018,04,24,10,43,16.30
2018,04,24,10,44,16.20
2018,04,24,10,45,16.20
2018,04,24,10,46,16.20
2018,04,24,10,47,16.20
2018,04,24,10,48,16.40
2018,04,24,10,49,16.50
2018,04,24,10,50,16.60
2018,04,24,10,51,16.70
2018,04,24,10,52,16.60
2018,04,24,10,53,16.50
2018,04,24,10,54,16.40
2018,04,24,10,55,16.30
2018,04,24,10,56,16.30
2018,04,24,10,57,16.30
2018,04,24,10,58,16.30
2018,04,24,10,59,16.20
2018,04,24,11,00,16.30
2018,04,24,11,01,16.30
2018,04,24,11,02,16.30
2018,04,24,11,03,16.30
2018,04,24,11,04,16.20
2018,04,24,11,05,16.20
2018,04,24,11,06,16.20
2018,04,24,11,07,16.20
2018,04,24,11,08,16.20
2018,04,24,11,09,16.20
2018,04,24,11,10,16.20
2018,04,24,11,11,16.30
2018,04,24,11,12,16.40
2018,04,24,11,13,16.50
2018,04,24,11,14,16.60
2018,04,24,11,15,16.60
2018,04,24,11,16,16.40
2018,04,24,11,17,16.40
2018,04,24,11,18,16.40
2018,04,24,11,19,16.50
2018,04,24,11,20,16.60
2018,04,24,11,21,16.60
2018,04,24,11,22,16.60
2018,04,24,11,23,16.50
2018,04,24,11,24,16.40
2018,04,24,11,25,16.30
2018,04,24,11,26,16.30
2018,04,24,11,27,16.20
2018,04,24,11,28,16.20
2018,04,24,11,29,16.10
2018,04,24,11,30,15.80
2018,04,24,11,31,15.70
2018,04,24,11,32,15.60
2018,04,24,11,33,15.50
2018,04,24,11,34,15.50
2018,04,24,11,35,15.60
2018,04,24,11,36,15.60
2018,04,24,11,37,15.60
2018,04,24,11,38,15.60
2018,04,24,11,39,15.50
2018,04,24,11,40,15.40
2018,04,24,11,41,15.30
2018,04,24,11,42,15.30
2018,04,24,11,43,15.30
2018,04,24,11,44,15.30
2018,04,24,11,45,15.40
2018,04,24,11,46,15.60
2018,04,24,11,47,15.70
2018,04,24,11,48,15.80
2018,04,24,11,49,15.70
2018,04,24,11,50,15.60
2018,04,24,11,51,15.40
2018,04,24,11,52,15.10
2018,04,24,11,53,14.90
2018,04,24,11,54,14.70
2018,04,24,11,55,14.60
2018,04,24,11,56,14.50
2018,04,24,11,57,14.30
2018,04,24,11,58,14.20
2018,04,24,11,59,14.20
2018,04,24,12,00,14.20
2018,04,24,12,01,14.20
2018,04,24,12,02,14.30
2018,04,24,12,03,14.30
2018,04,24,12,04,14.40
2018,04,24,12,05,14.40
2018,04,24,12,06,14.40
2018,04,24,12,07,14.40
2018,04,24,12,08,14.30
2018,04,24,12,09,14.30
2018,04,24,12,10,14.30
2018,04,24,12,11,14.40
2018,04,24,12,12,14.40
2018,04,24,12,13,14.50
2018,04,24,12,14,14.70
2018,04,24,12,15,14.70
2018,04,24,12,16,14.80
2018,04,24,12,17,14.80
2018,04,24,12,18,14.70
2018,04,24,12,19,14.80
2018,04,24,12,20,14.80
2018,04,24,12,21,14.90
2018,04,24,12,22,14.90
2018,04,24,12,23,14.80
2018,04,24,12,24,14.80
2018,04,24,12,25,14.80
2018,04,24,12,26,14.70
2018,04,24,12,27,14.60
2018,04,24,12,28,14.60
2018,04,24,12,29,14.60
2018,04,24,12,30,14.60
2018,04,24,12,31,14.70
2018,04,24,12,32,14.80
2018,04,24,12,33,14.80
2018,04,24,12,34,14.90
2018,04,24,12,35,15.00
2018,04,24,12,36,15.00
2018,04,24,12,37,15.00
2018,04,24,12,38,15.00
2018,04,24,12,39,15.00
2018,04,24,12,40,15.10
2018,04,24,12,41,15.10
2018,04,24,12,42,15.20
2018,04,24,12,43,15.20
2018,04,24,12,44,15.40
2018,04,24,12,45,15.40
2018,04,24,12,46,15.40
2018,04,24,12,47,15.40
2018,04,24,12,48,15.50
2018,04,24,12,49,15.60
2018,04,24,12,50,15.70
2018,04,24,12,51,15.80
2018,04,24,12,52,15.90
2018,04,24,12,53,16.10
2018,04,24,12,54,16.20
2018,04,24,12,55,16.40
2018,04,24,12,56,16.50
2018,04,24,12,57,16.50
2018,04,24,12,58,16.50
2018,04,24,12,59,16.40
2018,04,24,13,00,16.30
2018,04,24,13,01,16.30
2018,04,24,13,02,16.30
2018,04,24,13,03,16.30
2018,04,24,13,04,16.20
2018,04,24,13,05,16.10
2018,04,24,13,06,16.00
2018,04,24,13,07,15.90
2018,04,24,13,08,15.80
2018,04,24,13,09,15.60
2018,04,24,13,10,15.60
2018,04,24,13,11,15.60
2018,04,24,13,12,15.70
2018,04,24,13,13,15.80
2018,04,24,13,14,16.00
2018,04,24,13,15,16.10
2018,04,24,13,16,16.00
2018,04,24,13,17,16.00
2018,04,24,13,18,16.00
2018,04,24,13,19,16.10
2018,04,24,13,20,16.00
2018,04,24,13,21,16.00
2018,04,24,13,22,16.10
2018,04,24,13,23,16.20
2018,04,24,13,24,16.30
2018,04,24,13,25,16.30
2018,04,24,13,26,16.30
2018,04,24,13,27,16.30
2018,04,24,13,28,16.30
2018,04,24,13,29,16.30
2018,04,24,13,30,16.30
2018,04,24,13,31,16.30
2018,04,24,13,32,16.20
2018,04,24,13,33,16.00
2018,04,24,13,34,16.00
2018,04,24,13,35,16.00
2018,04,24,13,36,16.10
2018,04,24,13,37,16.20
2018,04,24,13,38,16.40
2018,04,24,13,39,16.40
2018,04,24,13,40,16.40
2018,04,24,13,41,16.40
2018,04,24,13,42,16.40
2018,04,24,13,43,16.50
2018,04,24,13,44,16.50
2018,04,24,13,45,16.60
2018,04,24,13,46,16.50
2018,04,24,13,47,16.40
2018,04,24,13,48,16.30
2018,04,24,13,49,16.30
2018,04,24,13,50,16.20
2018,04,24,13,51,16.20
2018,04,24,13,52,16.20
2018,04,24,13,53,16.30
2018,04,24,13,54,16.20
2018,04,24,13,55,16.20
2018,04,24,13,56,16.20
2018,04,24,13,57,16.40
2018,04,24,13,58,16.50
2018,04,24,13,59,16.50
2018,04,24,14,00,16.50
2018,04,24,14,01,16.40
2018,04,24,14,02,16.30
2018,04,24,14,03,16.40
2018,04,24,14,04,16.50
2018,04,24,14,05,16.50
2018,04,24,14,06,16.60
2018,04,24,14,07,16.80
2018,04,24,14,08,16.80
2018,04,24,14,09,16.90
2018,04,24,14,10,17.00
2018,04,24,14,11,17.10
2018,04,24,14,12,17.10
2018,04,24,14,13,17.10
2018,04,24,14,14,17.10
2018,04,24,14,15,17.00
2018,04,24,14,16,16.80
2018,04,24,14,17,16.80
2018,04,24,14,18,16.80
2018,04,24,14,19,16.80
2018,04,24,14,20,16.90
2018,04,24,14,21,16.90
2018,04,24,14,22,17.00
2018,04,24,14,23,17.10
2018,04,24,14,24,17.10
2018,04,24,14,25,17.10
2018,04,24,14,26,17.10
2018,04,24,14,27,17.20
2018,04,24,14,28,17.20
2018,04,24,14,29,17.20
2018,04,24,14,30,17.10
2018,04,24,14,31,17.00
2018,04,24,14,32,17.00
2018,04,24,14,33,17.10
2018,04,24,14,34,17.10
2018,04,24,14,35,17.20
2018,04,24,14,36,17.20
2018,04,24,14,37,17.20
2018,04,24,14,38,17.30
2018,04,24,14,39,17.40
2018,04,24,14,40,17.40
2018,04,24,14,41,17.40
2018,04,24,14,42,17.30
2018,04,24,14,43,17.20
2018,04,24,14,44,17.10
2018,04,24,14,45,17.00
2018,04,24,14,46,16.80
2018,04,24,14,47,16.70
2018,04,24,14,48,16.60
2018,04,24,14,49,16.60
2018,04,24,14,50,16.70
2018,04,24,14,51,16.80
2018,04,24,14,52,16.90
2018,04,24,14,53,17.00
2018,04,24,14,54,16.90
2018,04,24,14,55,16.90
2018,04,24,14,56,16.90
2018,04,24,14,57,16.90
2018,04,24,14,58,16.90
2018,04,24,14,59,16.90
2018,04,24,15,00,17.00
2018,04,24,15,01,17.00
2018,04,24,15,02,17.10
2018,04,24,15,03,17.10
2018,04,24,15,04,17.20
2018,04,24,15,05,17.20
2018,04,24,15,06,17.10
2018,04,24,15,07,17.10
2018,04,24,15,08,17.00
2018,04,24,15,09,17.00
2018,04,24,15,10,17.10
2018,04,24,15,11,17.20
2018,04,24,15,12,17.10
2018,04,24,15,13,17.10
2018,04,24,15,14,17.10
2018,04,24,15,15,17.10
2018,04,24,15,16,17.10
2018,04,24,15,17,17.10
2018,04,24,15,18,17.20
2018,04,24,15,19,17.30
2018,04,24,15,20,17.40
2018,04,24,15,21,17.50
2018,04,24,15,22,17.40
2018,04,24,15,23,17.30
2018,04,24,15,24,17.20
2018,04,24,15,25,17.10
2018,04,24,15,26,17.00
2018,04,24,15,27,17.00
2018,04,24,15,28,17.00
2018,04,24,15,29,17.00
2018,04,24,15,30,17.10
2018,04,24,15,31,17.20
2018,04,24,15,32,17.20
2018,04,24,15,33,17.20
2018,04,24,15,34,17.20
2018,04,24,15,35,17.10
2018,04,24,15,36,17.00
2018,04,24,15,37,16.80
2018,04,24,15,38,16.80
2018,04,24,15,39,16.80
2018,04,24,15,40,16.70
2018,04,24,15,41,16.60
2018,04,24,15,42,16.60
2018,04,24,15,43,16.50
2018,04,24,15,44,16.40
2018,04,24,15,45,16.40
2018,04,24,15,46,16.30
2018,04,24,15,47,16.30
2018,04,24,15,48,16.30
2018,04,24,15,49,16.40
2018,04,24,15,50,16.50
2018,04,24,15,51,16.60
2018,04,24,15,52,16.60
2018,04,24,15,53,16.50
2018,04,24,15,54,16.40
2018,04,24,15,55,16.30
2018,04,24,15,56,16.20
2018,04,24,15,57,16.10
2018,04,24,15,58,16.10
2018,04,24,15,59,16.10
2018,04,24,16,00,16.20
2018,04,24,16,01,16.20
2018,04,24,16,02,16.30
2018,04,24,16,03,16.40
2018,04,24,16,04,16.40
2018,04,24,16,05,16.50
2018,04,24,16,06,16.50
2018,04,24,16,07,16.60
2018,04,24,16,08,16.60
2018,04,24,16,09,16.50
2018,04,24,16,10,16.50
2018,04,24,16,11,16.40
2018,04,24,16,12,16.40
2018,04,24,16,13,16.40
2018,04,24,16,14,16.40
2018,04,24,16,15,16.50
2018,04,24,16,16,16.50
2018,04,24,16,17,16.50
2018,04,24,16,18,16.50
2018,04,24,16,19,16.40
2018,04,24,16,20,16.50
2018,04,24,16,21,16.40
2018,04,24,16,22,16.40
2018,04,24,16,23,16.30
2018,04,24,16,24,16.30
2018,04,24,16,25,16.30
2018,04,24,16,26,16.20
2018,04,24,16,27,16.10
2018,04,24,16,28,16.10
2018,04,24,16,29,16.10
2018,04,24,16,30,16.10
2018,04,24,16,31,16.10
2018,04,24,16,32,16.10
2018,04,24,16,33,16.20
2018,04,24,16,34,16.20
2018,04,24,16,35,16.30
2018,04,24,16,36,16.30
2018,04,24,16,37,16.30
2018,04,24,16,38,16.30
2018,04,24,16,39,16.30
2018,04,24,16,40,16.20
2018,04,24,16,41,16.10
2018,04,24,16,42,16.00
2018,04,24,16,43,16.00
2018,04,24,16,44,16.00
2018,04,24,16,45,16.10
2018,04,24,16,46,16.20
2018,04,24,16,47,16.20
2018,04,24,16,48,16.30
2018,04,24,16,49,16.30
2018,04,24,16,50,16.20
2018,04,24,16,51,16.20
2018,04,24,16,52,16.10
2018,04,24,16,53,16.10
2018,04,24,16,54,16.10
2018,04,24,16,55,16.10
2018,04,24,16,56,16.00
2018,04,24,16,57,16.00
2018,04,24,16,58,15.90
2018,04,24,16,59,16.00
2018,04,24,17,00,16.00
2018,04,24,17,01,16.10
2018,04,24,17,02,16.20
2018,04,24,17,03,16.20
2018,04,24,17,04,16.20
2018,04,24,17,05,16.20
2018,04,24,17,06,16.20
2018,04,24,17,07,16.20
2018,04,24,17,08,16.20
2018,04,24,17,09,16.20
2018,04,24,17,10,16.10
2018,04,24,17,11,16.10
2018,04,24,17,12,16.20
2018,04,24,17,13,16.10
2018,04,24,17,14,16.10
2018,04,24,17,15,16.00
2018,04,24,17,16,15.80
2018,04,24,17,17,15.70
2018,04,24,17,18,15.60
2018,04,24,17,19,15.50
2018,04,24,17,20,15.50
2018,04,24,17,21,15.50
2018,04,24,17,22,15.50
2018,04,24,17,23,15.50
2018,04,24,17,24,15.60
2018,04,24,17,25,15.60
2018,04,24,17,26,15.70
2018,04,24,17,27,15.60
2018,04,24,17,28,15.40
2018,04,24,17,29,15.30
2018,04,24,17,30,15.20
2018,04,24,17,31,15.20
2018,04,24,17,32,15.20
2018,04,24,17,33,15.20
2018,04,24,17,34,15.20
2018,04,24,17,35,15.10
2018,04,24,17,36,15.10
2018,04,24,17,37,15.20
2018,04,24,17,38,15.30